Volver al catálogo

STARLINK-38092

ActivoComunicacionesVLEO
NORAD 100012·PAYLOAD·🇺🇸 United States

Lanzado Jul 14, 2026 desde Vandenberg Space Force Base

Loading…

Próximos Pases (próximas 24 horas)

TLE

ActualizadoSource: Space-Track

Época: Sep 14, 2026, 22:25 UTC

1 A0012U 26160M   26257.93417284 -.00558797  00000-0 -41123-2 0  9994
2 A0012  70.0010 210.7495 0003186 255.4944 104.5900 15.74349971 11115

Sigue STARLINK-38092 en tiempo real con AllMySat

Download on the App Store